Regional Weather Roundup
Issued by NWS

Home | Current Version | Previous Version | Graphics & Text | Print | Product List | Glossary On
Versions: 1 2 3 4 5 6 7 8 9 10 11 12 13 14 15 16 17 18 19 20 21 22 23 24 25 26 27 28 29 30 31 32 33 34 35 36 37 38 39 40 41 42 43 44 45 46 47 48 49 50
000
ASUS43 KFSD 301810
RWRSD

WEATHER ROUNDUP FOR SOUTH DAKOTA
NATIONAL WEATHER SERVICE SIOUX FALLS SD
100 PM CDT MON MAY 30 2016

NOTE: "FAIR" INDICATES FEW OR NO CLOUDS BELOW 12,000 FEET WITH NO
SIGNIFICANT WEATHER AND/OR OBSTRUCTIONS TO VISIBILITY.


SDZ001>005-009-010-012>017-301900-
NORTHWEST AND NORTH CENTRAL SOUTH DAKOTA

CITY           SKY/WX    TMP DP  RH WIND       PRES   REMARKS
BUFFALO          N/A     60  53  77 N15       29.84R
FAITH            N/A     74  54  49 SE13      29.81F
MOBRIDGE       CLOUDY    76  56  49 S17G25    29.82S
$$

SDZ012>016-024>037-041>051-057-063-072>074-301900-
SOUTHWEST AND SOUTH CENTRAL SOUTH DAKOTA

CITY           SKY/WX    TMP DP  RH WIND       PRES   REMARKS
RAPID CTY ARPT CLOUDY    78  54  43 E10       29.83F
PIERRE         MOSUNNY   77  60  55 S20G25    29.81F
CUSTER         CLOUDY    67  38  34 SW12G18   29.96F
ELLSWORTH AFB  CLOUDY    78  51  38 N15       29.83F
PHILIP         SUNNY     78  58  49 SE15      29.81F
PINE RIDGE     SUNNY     80  45  28 W14G20    29.87F
WINNER         FAIR      75  57  53 S15G21    29.87F
$$

SDZ004>011-016>023-039-040-301900-
NORTHEAST SOUTH DAKOTA

CITY           SKY/WX    TMP DP  RH WIND       PRES   REMARKS
ABERDEEN       MOSUNNY   80  56  43 S16       29.89F
WATERTOWN      MOSUNNY   79  51  37 S16G25    29.92F
BROOKINGS      MOSUNNY   75  56  51 S17G24    29.93F
SISSETON         N/A     85  52  32 S17G24    29.87F
$$

SDZ017-020-022-023-036>040-048>070-301900-
SOUTHEAST SOUTH DAKOTA

CITY           SKY/WX    TMP DP  RH WIND       PRES   REMARKS
SIOUX FALLS    PTSUNNY   77  59  53 S12       29.93F
HURON          PTSUNNY   75  59  57 S12G24    29.88F
CHAMBERLAIN    PTSUNNY   76  65  68 S15       29.86F
MITCHELL       MOSUNNY   77  61  57 S17       29.89F
YANKTON        CLOUDY    79  55  44 S12       29.90F
$$

ABBREVIATIONS USED IN REMARKS
   TC - TEMPERATURE IN CELSIUS
  WCI - WIND CHILL INDEX
   HX - HEAT INDEX
  VSB - VISIBILITY





USA.gov is the U.S. government's official web portal to all federal, state and local government web resources and services.